Regional Weather Roundup
Issued by NWS

Home | Current Version | Previous Version | Graphics & Text | Print | Product List | Glossary On
Versions: 1 2 3 4 5 6 7 8 9 10 11 12 13 14 15 16 17 18 19 20 21 22 23 24 25 26 27 28 29 30 31 32 33 34 35 36 37 38 39 40 41 42 43 44 45 46 47 48 49 50
000
ASUS43 KDMX 202206
RWRIA

WEATHER ROUNDUP FOR IOWA
NATIONAL WEATHER SERVICE DES MOINES IA
500 PM CDT THU JUL 20 2017

NOTE: "FAIR" INDICATES FEW OR NO CLOUDS BELOW 12,000 FEET WITH NO
SIGNIFICANT WEATHER AND/OR OBSTRUCTIONS TO VISIBILITY.

* - THESE STATIONS ARE NOT NWS STATIONS...THUS NOT UNDER NWS
QUALITY CONTROL.  THEY ALSO DO NOT REPORT WEATHER SUCH
AS PRECIPITATION OR FOG.

IAZ001>003-012>014-020>022-031>034-043>046-202300-
   NORTHWEST IOWA

CITY           SKY/WX    TMP DP  RH WIND       PRES   REMARKS
CARROLL *      CLOUDY    93  77  59 E6        29.93F HX 107
CHEROKEE *     LGT RAIN  84  76  76 N6        29.99S HX  94
DENISON *      MOSUNNY   91  75  59 CALM      29.97S HX 102
ORANGE CITY *  LGT RAIN  84  75  74 E5        30.00F HX  92
SHELDON *      CLOUDY    86  70  58 SE5       30.00S HX  90
SIOUX CITY     LGT RAIN  87  75  67 E15       29.94F HX  96
SPENCER        CLOUDY    88  68  51 NE12      30.00S HX  91
STORM LAKE *   CLOUDY    86  75  70 NE10      29.99F HX  95
$$

IAZ055>058-069>071-079>083-090>094-202300-
   SOUTHWEST IOWA

CITY           SKY/WX    TMP DP  RH WIND       PRES   REMARKS
ATLANTIC *     SUNNY     93  77  59 SW8       29.94F HX 107
AUDUBON *      SUNNY     93  79  62 CALM      29.96F HX 110
CLARINDA *     SUNNY     93  81  66 SW12      29.95F HX 113
COUNCIL BLFS * SUNNY     93  77  59 S8        29.93F HX 107
CRESTON *      SUNNY     93  79  62 SW13      29.96F HX 110
HARLAN  *      SUNNY     93  77  59 VRB3      29.98F HX 107
LAMONI         SUNNY     93  79  63 SW12      29.95F HX 110
RED OAK *      SUNNY     93  79  62 S6G12     29.94F HX 110
SHENANDOAH *   MOSUNNY   93  79  62 SW8       29.93F HX 110
$$

IAZ047>049-059>061-072>074-084-202300-
   CENTRAL IOWA

CITY           SKY/WX    TMP DP  RH WIND       PRES   REMARKS
AMES           CLOUDY    95  79  59 VRB3      29.93F HX 112
ANKENY *       MOSUNNY   97  75  49 VRB5      29.93S HX 109
BOONE *        SUNNY     93  75  55 NE7       29.94F HX 104
CHARITON *     SUNNY     97  75  49 S13       29.93F HX 109
DES MOINES     MOSUNNY   99  73  43 VRB5      29.91F HX 109
GRINNELL*      SUNNY     91  76  61 CALM      29.95F HX 104
KNOXVILLE *    SUNNY     97  75  49 CALM      29.91F HX 109
MARSHALLTOWN   PTSUNNY   92  80  68 NE12      29.94F HX 110
NEWTON *       SUNNY     93  75  55 CALM      29.93F HX 104
PELLA *        SUNNY     98  74  46 CALM      29.93F HX 109
PERRY *          N/A     95  78  58 W3        29.94S HX 112
$$

IAZ004>006-015-016-023>025-035-036-202300-
   NORTH CENTRAL IOWA

CITY           SKY/WX    TMP DP  RH WIND       PRES   REMARKS
ALGONA *       CLOUDY    88  75  66 E12       29.99F HX  97
ESTHERVILLE    MOSUNNY   84  72  67 NE13      30.00F HX  89
FORT DODGE *   CLOUDY    88  75  66 NE8       29.97F HX  97
MASON CITY     MOSUNNY   84  75  74 E7        30.01F HX  92
FOREST CITY *    N/A     84  72  65 NE6       30.01S HX  89
WEBSTER CITY * CLOUDY    90  77  66 NE10      29.94F HX 102
IOWA FALLS *     N/A     88  77  68 NE9       29.99F HX 100
$$

IAZ007>011-017>019-026>030-037>042-050>054-066-202300-
   NORTHEAST IOWA

CITY           SKY/WX    TMP DP  RH WIND       PRES   REMARKS
CEDAR RAPIDS   MOSUNNY   92  80  68 N5        29.94F HX 110
CHARLES CITY * SUNNY     84  73  70 E9        30.00F HX  91
CLINTON *      PTSUNNY   87  79  76 N6        29.96F HX 101
DECORAH *      PTSUNNY   86  73  66 VRB6      29.99F HX  93
DUBUQUE        PTSUNNY   85  75  72 NE7       29.99S HX  93
MONTICELLO *   PTSUNNY   86  79  79 NE6G12    29.96S HX  99
OELWEIN *      SUNNY     86  75  70 N5        30.00S HX  95
WATERLOO       SUNNY     89  76  65 NE10      29.96F HX 100
$$

IAZ064-065-067-068-078-202300-
   EAST CENTRAL IOWA

CITY           SKY/WX    TMP DP  RH WIND       PRES   REMARKS
DAVENPORT      MOSUNNY   90  78  68 N3        29.97F HX 104
IOWA CITY      MOSUNNY   94  78  60 W7        29.95F HX 110
MT. PLEASANT * SUNNY     97  74  46 SW14      29.92F HX 108
MUSCATINE *    SUNNY     93  77  59 N5        29.93S HX 107
QUAD CITIES    SUNNY     93  77  59 NW7       29.93F HX 107
$$

IAZ062-063-075>077-085>089-095>099-202300-
   SOUTHEAST IOWA

CITY           SKY/WX    TMP DP  RH WIND       PRES   REMARKS
BURLINGTON     SUNNY     94  80  64 SW9       29.93F HX 113
FAIRFIELD *    SUNNY     97  73  46 SW6G15    29.92F HX 107
FORT MADISON * SUNNY     95  81  63 SW7       29.94F HX 115
KEOKUK *       SUNNY     97  77  52 SW13G20   29.93S HX 112
OSKALOOSA *      N/A     97  74  47 W3        29.93S HX 107
CENTERVILLE *    N/A     95  75  52 CALM      29.96F HX 107
OTTUMWA        SUNNY     99  75  46 W8        29.92F HX 112
WASHINGTON *   SUNNY     93  81  66 NE8       29.94S HX 113
$$

ABBREVIATIONS USED IN REMARKS
   TC - TEMPERATURES IN CELSIUS
  WCI - WIND CHILL INDEX
   HX - HEAT INDEX
  VSB - VISIBILITY
$$





USA.gov is the U.S. government's official web portal to all federal, state and local government web resources and services.